This is the latest recevied weather packets stored in our database for station/object KA9CBS. If no packets are shown the sender has not sent any weather packets the latest 10 day(s).
| Time | Temp. | Humidity | Pressure | Rain* | Wind** | Luminosity | Snow |
|---|---|---|---|---|---|---|---|
| 1778150760 | 3.89° C | 96% | 1018.6 hPa | 0 mm | - | 0 W/m² | - |
| 1778150456 | 3.89° C | 95% | 1018.4 hPa | 0 mm | - | 0 W/m² | - |
| 1778150152 | 3.33° C | 95% | 1018.4 hPa | 0 mm | - | 0 W/m² | - |
| 1778149849 | 3.33° C | 94% | 1018.4 hPa | 0 mm | - | 0 W/m² | - |
| 1778149546 | 3.33° C | 94% | 1018.6 hPa | 0 mm | - | 0 W/m² | - |
| 1778149242 | 3.33° C | 93% | 1018.5 hPa | 0 mm | - | 0 W/m² | - |
| 1778148937 | 3.89° C | 93% | 1018.8 hPa | 0 mm | - | 0 W/m² | - |
| 1778148634 | 3.89° C | 93% | 1018.7 hPa | 0 mm | - | 0 W/m² | - |
| 1778148331 | 3.89° C | 93% | 1018.8 hPa | 0 mm | - | 0 W/m² | - |
| 1778148030 | 3.89° C | 92% | 1018.7 hPa | 0 mm | - | 0 W/m² | - |
| 1778147727 | 4.44° C | 92% | 1018.8 hPa | 0 mm | - | 0 W/m² | - |
| 1778147423 | 4.44° C | 91% | 1018.7 hPa | 0 mm | - | 0 W/m² | - |
| 1778147120 | 5° C | 91% | 1018.6 hPa | 0 mm | - | 0 W/m² | - |
| 1778146817 | 5° C | 91% | 1018.6 hPa | 0 mm | - | 0 W/m² | - |
| 1778146514 | 5° C | 91% | 1018.6 hPa | 0 mm | - | 0 W/m² | - |
| 1778146213 | 5° C | 90% | 1018.9 hPa | 0 mm | - | 0 W/m² | - |
| 1778145909 | 5° C | 89% | 1019 hPa | 0 mm | - | 0 W/m² | - |
| 1778145606 | 5.56° C | 87% | 1018.9 hPa | 0 mm | - | 0 W/m² | - |
| 1778145302 | 5.56° C | 86% | 1018.7 hPa | 0 mm | - | 0 W/m² | - |
| 1778144998 | 5.56° C | 86% | 1018.7 hPa | 0 mm | - | 0 W/m² | - |
| 1778144694 | 6.11° C | 85% | 1018.8 hPa | 0 mm | - | 0 W/m² | - |
| 1778144391 | 6.11° C | 84% | 1019 hPa | 0 mm | - | 0 W/m² | - |
| 1778144088 | 6.11° C | 83% | 1019 hPa | 0 mm | - | 0 W/m² | - |
| 1778143785 | 6.11° C | 83% | 1018.6 hPa | 0 mm | - | 0 W/m² | - |
| 1778143482 | 6.67° C | 82% | 1018.6 hPa | 0 mm | - | 0 W/m² | - |
* Rain latest hour (hover to see other rain measurements)
** Current wind speed in m/s (hover to see current wind gust speed)